QPF
0.00 0.00 0.00 0.00 0.01 0.01 0.02 0.03 0.06 0.07 0.06 0.09 0.10 0.11 0.04 0.07 0.20 0.17 0.07 0.02 0.01 0.00 0.00 0.00 0.00 0.00 0.00 0.00 0.01 0.01 0.01 0.00 0.00 0.00 0.00 0.00 0.00 0.00 0.00 0.00 0.00 0.00 0.00
0.00 0.00 0.00 0.00 0.00 0.00 0.00 0.00 0.01 0.03 0.07 0.08 0.03 0.04 0.04 0.03 0.03 0.06 0.05 0.03 0.02 0.02 0.02 0.01 0.00 0.00 0.00 0.00 0.01 0.01 0.00 0.00 0.00 0.00 0.00 0.00 0.00 0.00 0.00 0.00 0.00 0.00 0.01
0.00 0.00 0.00 0.00 0.00 0.00 0.00 0.00 0.00 0.00 0.01 0.03 0.04 0.04 0.04 0.04 0.05 0.05 0.04 0.03 0.01 0.01 0.01 0.01 0.00 0.00 0.00 0.00 0.00 0.00 0.00 0.00 0.00 0.00 0.00 0.00 0.00 0.00 0.00 0.00 0.00 0.00 0.00
0.00 0.00 0.00 0.00 0.00 0.00 0.00 0.00 0.00 0.00 0.00 0.00 0.00 0.00 0.00 0.00 0.00 0.01 0.01 0.01 0.00 0.01 0.01 0.01 0.01 0.01 0.01 0.00 0.00 0.00 0.00 0.00 0.00 0.00 0.00 0.00 0.00 0.00 0.00 0.00 0.00 0.00 0.00
0.00 0.00 0.00 0.00 0.00 0.00 0.00 0.00 0.00 0.00 0.00 0.00 0.00 0.00 0.00 0.00 0.00 0.00 0.00 0.01 0.01 0.02 0.02 0.02 0.02 0.02 0.01 0.01 0.00 0.00 0.00 0.00 0.00 0.00 0.00 0.00 0.00 0.00 0.00 0.00 0.00 0.00 0.00
0.00 0.00 0.00 0.00 0.00 0.00 0.00 0.00 0.00 0.00 0.00 0.00 0.00 0.00 0.00 0.00 0.00 0.00 0.00 0.01 0.01 0.02 0.02 0.02 0.01 0.00 0.00 0.00 0.00 0.00 0.00 0.00 0.00 0.00 0.00 0.00 0.00 0.00 0.00 0.00 0.00 0.00 0.00
0.00 0.00 0.00 0.00 0.00 0.00 0.00 0.00 0.00 0.00 0.00 0.00 0.00 0.00 0.00 0.00 0.00 0.00 0.00 0.01 0.01 0.01 0.01 0.00 0.00 0.00 0.00 0.00 0.00 0.00 0.00 0.00 0.00 0.00 0.00 0.00 0.00 0.00 0.00 0.00 0.00 0.00 0.00
0.00 0.00 0.00 0.00 0.00 0.00 0.00 0.00 0.00 0.00 0.00 0.00 0.00 0.00 0.00 0.00 0.00 0.00 0.00 0.00 0.00 0.00 0.00 0.00 0.00 0.00 0.00 0.00 0.00 0.00 0.00 0.00 0.00 0.00 0.00 0.00 0.00 0.00 0.00 0.00 0.00 0.00 0.00
0.00 0.00 0.00 0.00 0.00 0.00 0.00 0.00 0.00 0.00 0.00 0.00 0.00 0.00 0.00 0.00 0.00 0.00 0.00 0.00 0.00 0.00 0.00 0.00 0.00 0.00 0.00 0.00 0.00 0.00 0.00 0.00 0.00 0.00 0.00 0.00 0.00 0.00 0.00 0.00 0.00 0.00 0.00
0.00 0.00 0.00 0.00 0.00 0.00 0.00 0.00 0.00 0.00 0.00 0.00 0.00 0.00 0.00 0.00 0.00 0.00 0.00 0.00 0.00 0.00 0.00 0.00 0.00 0.00 0.00 0.00 0.00 0.00 0.00 0.00 0.00 0.00 0.00 0.00 0.00 0.00 0.00 0.00 0.00 0.00 0.00
0.00 0.00 0.00 0.00 0.00 0.00 0.00 0.00 0.00 0.00 0.00 0.00 0.00 0.00 0.00 0.00 0.00 0.00 0.00 0.00 0.00 0.00 0.00 0.00 0.00 0.00 0.00 0.00 0.00 0.00 0.00 0.00 0.00 0.00 0.00 0.00 0.00 0.00 0.00 0.00 0.00 0.00 0.00
0.00 0.00 0.00 0.00 0.00 0.00 0.00 0.00 0.00 0.00 0.00 0.00 0.00 0.00 0.00 0.00 0.00 0.00 0.00 0.00 0.00 0.00 0.00 0.00 0.00 0.00 0.00 0.00 0.00 0.00 0.00 0.00 0.00 0.00 0.00 0.00 0.00 0.00 0.00 0.00 0.00 0.00 0.00
0.00 0.00 0.00 0.00 0.00 0.00 0.00 0.00 0.00 0.00 0.00 0.00 0.00 0.00 0.00 0.00 0.00 0.00 0.00 0.00 0.00 0.00 0.00 0.00 0.00 0.00 0.00 0.00 0.00 0.00 0.00 0.00 0.00 0.00 0.00 0.00 0.00 0.00 0.00 0.00 0.00 0.00 0.00
0.00 0.00 0.00 0.00 0.00 0.00 0.00 0.00 0.00 0.00 0.00 0.00 0.00 0.00 0.00 0.00 0.00 0.00 0.00 0.00 0.00 0.00 0.00 0.00 0.00 0.00 0.00 0.00 0.00 0.00 0.00 0.00 0.00 0.00 0.00 0.00 0.00 0.00 0.00 0.00 0.00 0.00 0.00
0.00 0.00 0.00 0.00 0.00 0.00 0.00 0.00 0.00 0.00 0.00 0.00 0.00 0.00 0.00 0.00 0.00 0.00 0.00 0.00 0.00 0.00 0.00 0.00 0.00 0.00 0.00 0.00 0.00 0.00 0.00 0.00 0.00 0.00 0.00 0.00 0.00 0.00 0.00 0.00 0.00 0.00 0.00
0.00 0.00 0.00 0.00 0.00 0.00 0.00 0.00 0.00 0.00 0.00 0.00 0.00 0.00 0.00 0.00 0.00 0.00 0.00 0.00 0.00 0.00 0.00 0.00 0.00 0.00 0.00 0.00 0.00 0.00 0.00 0.00 0.00 0.00 0.00 0.00 0.00 0.00 0.00 0.00 0.00 0.00 0.00
0.00 0.00 0.00 0.00 0.00 0.00 0.00 0.00 0.00 0.00 0.00 0.00 0.00 0.00 0.00 0.00 0.00 0.00 0.00 0.00 0.00 0.00 0.00 0.00 0.00 0.00 0.00 0.00 0.00 0.00 0.00 0.00 0.00 0.00 0.00 0.00 0.00 0.00 0.00 0.00 0.00 0.00 0.00
0.00 0.00 0.00 0.00 0.00 0.00 0.00 0.00 0.00 0.00 0.00 0.00 0.00 0.00 0.00 0.00 0.00 0.00 0.00 0.00 0.00 0.00 0.00 0.00 0.00 0.00 0.00 0.00 0.00 0.00 0.00 0.00 0.00 0.00 0.00 0.00 0.00 0.00 0.00 0.00 0.00 0.00 0.00
0.00 0.00 0.00 0.00 0.00 0.00 0.00 0.00 0.00 0.00 0.00 0.00 0.00 0.00 0.00 0.00 0.00 0.00 0.00 0.00 0.00 0.00 0.00 0.00 0.00 0.00 0.00 0.00 0.00 0.00 0.00 0.00 0.00 0.00 0.00 0.00 0.00 0.00 0.00 0.00 0.00 0.00 0.00
0.00 0.00 0.00 0.00 0.00 0.00 0.00 0.00 0.00 0.00 0.00 0.00 0.00 0.00 0.00 0.00 0.00 0.00 0.00 0.00 0.00 0.00 0.00 0.00 0.00 0.00 0.00 0.00 0.00 0.00 0.00 0.00 0.00 0.00 0.00 0.00 0.00 0.00 0.00 0.00 0.00 0.00 0.00
0.00 0.00 0.00 0.00 0.00 0.00 0.00 0.00 0.00 0.00 0.00 0.00 0.00 0.00 0.00 0.00 0.00 0.00 0.00 0.00 0.00 0.00 0.00 0.00 0.00 0.00 0.00 0.00 0.00 0.00 0.00 0.00 0.00 0.00 0.00 0.00 0.00 0.00 0.00 0.00 0.00 0.00 0.00
0.00 0.00 0.00 0.00 0.00 0.00 0.00 0.00 0.00 0.00 0.00 0.00 0.00 0.00 0.00 0.00 0.00 0.00 0.00 0.00 0.00 0.00 0.00 0.00 0.00 0.00 0.00 0.00 0.00 0.00 0.00 0.00 0.00 0.00 0.00 0.00 0.00 0.00 0.00 0.00 0.00 0.00 0.00
0.00 0.00 0.00 0.00 0.00 0.00 0.00 0.00 0.00 0.00 0.00 0.00 0.00 0.00 0.00 0.00 0.00 0.00 0.00 0.00 0.00 0.00 0.00 0.00 0.00 0.00 0.00 0.00 0.00 0.00 0.00 0.00 0.00 0.00 0.00 0.00 0.00 0.00 0.00 0.00 0.00 0.00 0.00
0.00 0.00 0.00 0.00 0.00 0.00 0.00 0.00 0.00 0.00 0.00 0.00 0.00 0.00 0.00 0.00 0.00 0.00 0.00 0.00 0.00 0.00 0.00 0.00 0.00 0.00 0.00 0.00 0.00 0.00 0.00 0.00 0.00 0.00 0.00 0.00 0.00 0.00 0.00 0.00 0.00 0.00 0.00
0.00 0.00 0.00 0.00 0.00 0.00 0.00 0.00 0.00 0.00 0.00 0.00 0.01 0.00 0.00 0.00 0.00 0.00 0.00 0.00 0.00 0.00 0.00 0.00 0.00 0.00 0.00 0.00 0.00 0.00 0.00 0.00 0.00 0.00 0.00 0.00 0.00 0.00 0.00 0.00 0.00 0.00 0.00
0.00 0.00 0.00 0.00 0.00 0.00 0.00 0.00 0.00 0.00 0.00 0.00 0.00 0.00 0.00 0.00 0.00 0.00 0.00 0.00 0.00 0.00 0.00 0.00 0.00 0.00 0.00 0.00 0.00 0.00 0.00 0.00 0.00 0.00 0.00 0.00 0.00 0.00 0.00 0.00 0.00 0.00 0.00
MSLP
1009.06 1008.43 1008.49 1008.51 1008.08 1007.99 1008.28 1007.97 1007.64 1007.03 1006.77 1005.71 1005.96 1006.17 1006.45 1006.61 1006.71 1007.11 1007.55 1007.65 1007.65 1007.95 1008.22 1008.39 1008.60 1008.99 1009.26 1009.44 1009.71 1009.83 1010.25 1010.73 1010.54 1010.54 1010.59 1010.85 1011.26 1011.43 1011.74 1012.08 1012.33 1012.79 1012.95
1010.44 1010.07 1009.61 1009.64 1009.54 1009.74 1009.43 1009.10 1008.57 1007.98 1007.46 1006.38 1005.92 1005.94 1006.18 1006.09 1006.39 1006.81 1006.88 1007.11 1007.11 1007.11 1007.23 1007.62 1007.75 1008.20 1008.44 1008.65 1008.83 1009.15 1009.45 1009.75 1009.98 1009.85 1010.02 1010.27 1010.35 1010.52 1010.97 1011.31 1011.47 1011.85 1011.96
1011.05 1011.21 1011.34 1011.07 1011.08 1010.85 1010.69 1010.35 1009.83 1008.81 1008.28 1007.80 1007.34 1007.07 1006.31 1006.00 1006.09 1006.28 1006.45 1006.41 1006.47 1006.36 1006.61 1006.75 1006.88 1007.30 1007.60 1007.93 1008.23 1008.37 1008.37 1008.77 1009.09 1009.28 1009.37 1009.68 1009.90 1010.15 1010.42 1010.84 1011.00 1011.68 1012.37
1013.33 1012.82 1012.26 1012.07 1012.17 1012.03 1011.76 1011.38 1010.72 1010.20 1009.75 1009.35 1008.97 1008.66 1008.47 1008.25 1008.13 1007.86 1007.20 1006.19 1005.95 1006.00 1006.12 1006.08 1006.26 1006.43 1006.63 1006.84 1007.20 1007.29 1007.77 1008.25 1008.52 1008.65 1008.89 1009.11 1009.34 1009.51 1009.78 1010.27 1010.63 1011.50 1012.62
1014.07 1013.68 1013.45 1013.49 1013.45 1013.15 1012.67 1012.35 1011.95 1011.73 1011.24 1010.90 1010.28 1010.03 1009.81 1009.66 1009.75 1009.05 1008.21 1007.12 1006.24 1005.80 1005.70 1005.72 1005.84 1005.84 1005.89 1006.01 1006.15 1006.47 1007.19 1007.67 1007.99 1008.11 1008.34 1008.49 1008.78 1008.95 1009.20 1009.47 1010.08 1011.15 1012.34
1016.02 1015.58 1014.94 1014.33 1014.67 1014.48 1014.12 1013.66 1013.20 1012.87 1012.68 1012.23 1011.77 1011.43 1011.23 1010.82 1010.55 1009.75 1008.73 1007.38 1007.17 1006.34 1005.88 1005.52 1005.47 1005.67 1005.72 1005.89 1006.53 1006.35 1006.69 1007.07 1007.25 1007.60 1007.72 1007.82 1007.96 1008.22 1008.59 1008.85 1009.65 1011.05 1012.46
1017.74 1017.03 1016.22 1015.85 1015.53 1015.05 1015.04 1014.75 1014.43 1014.10 1014.00 1013.49 1013.18 1012.60 1012.53 1012.31 1011.46 1010.31 1009.64 1008.84 1008.30 1008.16 1007.86 1007.23 1006.82 1006.23 1006.25 1005.90 1006.46 1006.67 1006.99 1007.15 1006.93 1006.85 1007.16 1007.11 1007.42 1007.26 1007.81 1008.21 1008.80 1009.79 1010.41
1018.70 1018.20 1018.16 1017.23 1016.80 1016.49 1016.01 1015.61 1015.42 1015.26 1014.88 1014.90 1014.41 1014.22 1013.79 1013.27 1012.28 1011.53 1010.61 1010.18 1009.89 1009.40 1009.32 1009.06 1008.24 1008.01 1007.87 1006.81 1006.55 1007.25 1008.00 1008.03 1007.83 1007.72 1007.58 1007.76 1007.73 1007.34 1007.08 1007.08 1007.75 1009.54 1011.09
1020.39 1020.25 1019.56 1019.06 1018.35 1018.02 1017.70 1017.32 1016.83 1016.53 1016.22 1016.00 1015.81 1015.40 1014.87 1014.51 1013.57 1012.45 1011.59 1011.46 1011.37 1011.13 1010.65 1010.17 1009.89 1008.91 1008.44 1007.76 1007.59 1007.71 1008.70 1009.00 1009.29 1009.10 1008.95 1009.10 1008.86 1008.74 1008.16 1007.79 1008.45 1009.71 1011.45
1021.44 1021.15 1020.59 1020.08 1019.66 1019.25 1018.87 1018.31 1017.88 1017.23 1017.04 1016.86 1016.68 1016.38 1015.98 1015.19 1014.48 1013.67 1013.13 1012.90 1012.35 1012.27 1011.93 1011.53 1010.57 1010.07 1009.38 1008.27 1008.03 1009.11 1009.12 1009.79 1010.01 1009.89 1009.69 1009.59 1009.74 1009.63 1009.14 1009.40 1008.83 1008.81 1010.20
1021.63 1021.35 1021.12 1020.97 1020.72 1020.35 1019.79 1019.16 1018.75 1018.19 1017.83 1017.49 1017.22 1017.03 1016.62 1016.14 1015.68 1015.12 1014.67 1014.00 1013.60 1013.32 1012.93 1012.39 1012.25 1011.74 1010.85 1009.27 1009.14 1010.25 1010.49 1010.56 1010.73 1010.83 1011.03 1010.95 1010.58 1010.78 1010.71 1010.31 1010.49 1009.96 1009.98
1022.11 1022.09 1021.87 1021.63 1021.38 1021.04 1020.53 1019.99 1019.59 1019.05 1018.59 1018.39 1018.10 1017.63 1017.31 1017.18 1016.73 1016.11 1015.57 1015.42 1014.95 1014.39 1014.23 1013.98 1013.61 1013.17 1012.21 1011.43 1011.17 1010.64 1011.19 1011.47 1010.94 1011.75 1011.86 1012.60 1012.10 1011.75 1012.15 1011.82 1011.82 1011.49 1011.55
1022.67 1022.16 1021.88 1021.65 1021.33 1021.01 1020.83 1020.51 1019.89 1019.48 1019.25 1019.10 1018.91 1018.49 1018.15 1017.73 1017.34 1017.10 1016.68 1016.38 1016.03 1015.43 1015.45 1015.12 1014.51 1013.92 1013.49 1012.93 1012.76 1012.55 1012.28 1011.81 1011.91 1012.23 1013.06 1013.39 1013.52 1012.94 1012.95 1012.79 1012.70 1012.67 1012.22
1022.92 1022.45 1021.93 1021.50 1021.50 1021.29 1021.32 1021.17 1021.26 1021.07 1020.75 1020.54 1020.15 1019.72 1019.29 1018.94 1018.75 1018.27 1017.61 1017.04 1016.65 1016.13 1015.81 1015.52 1015.21 1014.86 1014.47 1014.43 1013.87 1013.39 1013.31 1013.68 1013.50 1013.67 1013.78 1013.97 1014.23 1013.59 1013.37 1013.69 1013.53 1013.19 1013.28
1023.50 1023.09 1022.77 1022.31 1022.24 1021.85 1021.83 1022.64 1022.62 1023.06 1022.97 1022.29 1021.83 1021.25 1020.81 1020.33 1020.17 1019.81 1019.17 1018.25 1017.65 1017.25 1016.45 1016.05 1015.71 1015.45 1015.39 1015.18 1015.08 1015.10 1014.93 1014.83 1014.75 1014.75 1014.75 1014.57 1014.57 1014.25 1014.31 1014.34 1014.52 1014.43 1014.70
1024.70 1024.41 1024.22 1023.71 1023.45 1023.33 1023.13 1023.16 1024.13 1024.28 1024.15 1023.81 1023.31 1022.60 1021.93 1021.62 1020.94 1020.27 1019.79 1019.24 1018.51 1017.83 1017.15 1016.83 1016.78 1016.64 1016.48 1016.34 1016.16 1016.13 1016.01 1015.93 1015.73 1015.51 1015.49 1015.62 1015.55 1015.28 1015.05 1015.25 1015.55 1015.60 1015.75
1026.48 1025.98 1025.19 1024.79 1024.50 1024.38 1024.33 1024.19 1023.79 1023.45 1023.54 1023.86 1023.88 1023.54 1022.97 1022.55 1021.79 1021.02 1020.32 1019.73 1019.22 1018.33 1018.06 1018.01 1017.86 1017.68 1017.43 1017.24 1017.00 1016.93 1017.09 1017.31 1017.03 1016.63 1016.37 1016.36 1016.40 1016.39 1016.14 1016.15 1016.33 1016.21 1016.57
1027.10 1026.56 1026.03 1025.53 1025.33 1025.19 1025.00 1024.65 1024.27 1023.97 1023.50 1023.30 1023.34 1023.59 1023.53 1023.15 1022.48 1021.79 1021.01 1019.97 1019.65 1019.53 1019.34 1019.19 1019.03 1018.86 1018.62 1018.45 1018.33 1018.12 1017.92 1017.84 1017.80 1017.50 1017.21 1017.08 1016.95 1016.99 1016.91 1016.90 1017.24 1017.33 1017.30
1027.59 1027.09 1026.90 1026.19 1025.88 1025.82 1025.29 1024.82 1024.57 1024.31 1024.08 1023.88 1023.75 1023.60 1023.48 1023.27 1022.83 1022.47 1021.93 1021.25 1020.86 1020.63 1020.53 1020.46 1020.41 1020.11 1019.89 1019.72 1019.61 1019.43 1019.28 1019.16 1018.73 1018.33 1018.21 1018.02 1017.87 1017.72 1017.74 1017.90 1018.19 1018.08 1017.77
1027.91 1027.61 1027.37 1026.64 1026.16 1025.81 1025.49 1025.22 1024.93 1024.71 1024.44 1024.33 1024.37 1024.68 1024.43 1023.44 1023.13 1022.96 1022.87 1022.69 1022.21 1022.05 1021.80 1021.51 1021.51 1021.43 1021.28 1020.90 1020.61 1020.35 1019.85 1019.70 1019.37 1019.13 1019.03 1018.85 1018.77 1018.68 1018.58 1018.54 1018.49 1018.42 1018.67
1028.32 1027.81 1027.67 1026.83 1026.45 1026.22 1025.89 1025.58 1025.37 1025.13 1024.93 1024.81 1024.88 1025.61 1025.66 1024.39 1023.99 1023.86 1023.80 1023.81 1023.66 1023.39 1023.26 1022.97 1022.84 1022.75 1022.45 1022.17 1021.75 1021.41 1021.18 1020.97 1020.86 1020.44 1020.07 1019.95 1019.79 1019.51 1019.41 1019.31 1019.29 1019.31 1019.18
1028.66 1028.15 1027.63 1027.19 1026.97 1026.57 1026.48 1026.07 1025.69 1025.48 1025.30 1025.17 1025.10 1025.24 1025.69 1024.91 1024.67 1024.55 1024.59 1024.72 1024.66 1024.48 1024.27 1024.07 1023.87 1023.99 1024.07 1023.77 1023.45 1022.96 1022.74 1022.53 1022.36 1021.96 1021.51 1021.16 1020.63 1020.45 1020.25 1020.09 1019.91 1020.01 1019.92
1028.94 1028.55 1028.02 1027.59 1027.46 1027.20 1026.58 1026.27 1025.96 1025.67 1025.39 1025.36 1025.42 1025.31 1025.33 1025.30 1025.24 1025.12 1025.16 1025.31 1025.26 1025.25 1025.33 1024.94 1024.83 1024.84 1024.85 1024.77 1024.56 1024.37 1024.15 1024.06 1023.91 1023.83 1022.73 1021.95 1021.52 1021.19 1020.99 1020.80 1020.87 1020.81 1020.87
1029.21 1028.83 1028.35 1027.97 1027.65 1027.57 1027.06 1026.74 1026.34 1026.12 1025.90 1025.54 1025.49 1025.41 1025.43 1025.46 1025.45 1025.49 1025.63 1025.73 1025.75 1025.67 1025.75 1025.71 1025.78 1026.01 1025.67 1025.35 1025.21 1025.13 1025.38 1025.38 1024.75 1024.23 1023.97 1023.01 1022.37 1022.09 1021.82 1021.70 1021.75 1021.99 1021.71
1029.27 1028.93 1028.58 1028.26 1027.91 1027.63 1027.33 1026.91 1026.60 1026.37 1026.06 1025.74 1025.50 1025.40 1025.39 1025.43 1025.48 1025.52 1025.63 1025.82 1026.07 1025.87 1025.97 1026.11 1026.01 1026.08 1026.35 1026.42 1026.32 1026.27 1026.40 1026.13 1025.78 1025.39 1024.13 1023.66 1023.44 1023.13 1022.93 1022.58 1022.57 1022.39 1022.54
1029.05 1028.74 1028.46 1028.14 1027.80 1027.56 1027.31 1027.05 1026.74 1026.49 1026.19 1025.88 1025.72 1025.66 1025.54 1025.45 1025.41 1025.49 1025.57 1025.78 1025.86 1025.86 1026.06 1025.93 1026.11 1026.54 1026.52 1026.13 1026.44 1026.76 1026.68 1026.45 1026.03 1025.82 1025.04 1023.99 1023.73 1023.55 1023.37 1023.35 1023.38 1022.90 1023.02
Thickness
5547 5559 5565 5573 5585 5592 5595 5604 5610 5619 5621 5636 5633 5632 5633 5634 5634 5632 5628 5629 5631 5630 5629 5629 5628 5626 5624 5624 5621 5619 5615 5609 5608 5611 5611 5607 5602 5601 5599 5598 5597 5594 5594
5531 5542 5552 5558 5565 5571 5577 5584 5592 5600 5606 5618 5623 5626 5625 5627 5627 5625 5625 5624 5624 5625 5626 5625 5626 5623 5621 5620 5618 5615 5613 5611 5607 5607 5606 5603 5602 5601 5599 5596 5595 5592 5593
5521 5527 5530 5537 5542 5551 5557 5564 5571 5582 5589 5595 5600 5604 5613 5618 5619 5620 5619 5620 5620 5620 5620 5621 5622 5618 5617 5613 5610 5610 5613 5610 5606 5603 5602 5600 5597 5596 5594 5591 5589 5585 5581
5495 5506 5517 5524 5528 5533 5538 5544 5552 5559 5565 5571 5575 5579 5582 5585 5588 5591 5598 5610 5613 5614 5614 5615 5615 5614 5612 5611 5606 5607 5606 5602 5601 5599 5597 5595 5593 5591 5589 5586 5583 5576 5570
5488 5496 5503 5505 5508 5514 5520 5525 5531 5535 5542 5547 5554 5557 5561 5563 5562 5569 5577 5587 5598 5604 5605 5606 5606 5608 5604 5605 5605 5604 5598 5595 5594 5594 5593 5591 5589 5588 5586 5584 5581 5571 5561
5467 5474 5482 5490 5490 5492 5498 5504 5510 5515 5519 5524 5530 5534 5536 5542 5545 5551 5560 5574 5574 5585 5592 5595 5596 5594 5591 5584 5585 5589 5590 5589 5590 5588 5589 5589 5589 5585 5582 5580 5575 5563 5553
5447 5457 5467 5471 5474 5479 5480 5485 5488 5493 5496 5502 5506 5513 5514 5517 5524 5534 5539 5546 5550 5551 5554 5560 5565 5574 5574 5580 5572 5571 5568 5570 5575 5585 5586 5588 5584 5584 5578 5576 5573 5566 5565
5435 5442 5443 5453 5456 5459 5463 5467 5470 5471 5476 5477 5482 5485 5489 5495 5504 5510 5518 5522 5524 5528 5530 5532 5538 5544 5547 5558 5562 5553 5549 5551 5557 5559 5564 5564 5564 5569 5574 5576 5570 5555 5540
5417 5418 5427 5432 5439 5440 5442 5444 5448 5450 5453 5455 5457 5461 5466 5470 5479 5488 5496 5498 5499 5502 5506 5511 5514 5522 5529 5535 5539 5536 5531 5532 5532 5536 5540 5542 5545 5546 5552 5557 5552 5546 5527
5408 5410 5416 5420 5422 5424 5427 5431 5434 5438 5439 5439 5439 5442 5445 5452 5458 5465 5470 5474 5479 5479 5483 5488 5497 5503 5510 5519 5521 5514 5515 5511 5511 5516 5521 5524 5525 5528 5533 5531 5537 5552 5529
5403 5404 5405 5404 5405 5408 5412 5417 5419 5423 5424 5425 5426 5426 5429 5433 5436 5440 5445 5451 5456 5458 5460 5467 5470 5475 5483 5498 5500 5491 5490 5492 5492 5493 5496 5500 5505 5505 5508 5512 5511 5518 5521
5392 5391 5391 5391 5392 5394 5397 5401 5403 5407 5411 5411 5411 5414 5414 5413 5416 5420 5424 5425 5429 5435 5438 5440 5444 5449 5458 5466 5469 5474 5470 5470 5476 5472 5474 5470 5478 5483 5481 5486 5487 5491 5491
5381 5384 5385 5386 5387 5387 5386 5388 5393 5396 5398 5397 5397 5399 5400 5401 5403 5402 5404 5406 5407 5413 5413 5416 5423 5429 5433 5438 5440 5444 5447 5452 5452 5452 5446 5447 5449 5456 5457 5461 5463 5465 5469
5372 5374 5377 5379 5377 5377 5375 5375 5371 5372 5374 5374 5375 5377 5380 5381 5380 5383 5386 5390 5392 5396 5398 5400 5402 5405 5410 5411 5417 5421 5424 5422 5423 5424 5425 5425 5425 5433 5436 5435 5438 5442 5443
5361 5361 5360 5362 5359 5360 5359 5350 5349 5343 5341 5345 5347 5350 5351 5354 5354 5356 5360 5367 5371 5373 5380 5383 5385 5387 5387 5389 5389 5390 5392 5394 5396 5398 5400 5403 5404 5408 5409 5410 5410 5413 5414
5339 5338 5335 5336 5335 5333 5334 5333 5321 5318 5317 5318 5320 5324 5328 5329 5332 5336 5339 5342 5348 5353 5359 5362 5361 5362 5364 5365 5367 5366 5367 5368 5371 5374 5375 5375 5376 5380 5384 5385 5384 5385 5385
5310 5310 5315 5314 5313 5311 5308 5307 5309 5310 5305 5302 5301 5301 5304 5306 5310 5314 5318 5322 5325 5332 5334 5334 5335 5337 5341 5343 5345 5346 5344 5342 5344 5348 5351 5351 5352 5352 5356 5357 5357 5359 5356
5295 5295 5295 5296 5293 5291 5289 5289 5289 5289 5290 5290 5287 5283 5282 5283 5286 5290 5295 5303 5304 5304 5306 5307 5308 5309 5312 5313 5314 5317 5319 5320 5321 5325 5327 5329 5331 5332 5334 5335 5333 5332 5333
5278 5277 5273 5275 5273 5269 5269 5269 5268 5267 5265 5264 5263 5262 5261 5260 5263 5265 5268 5273 5276 5277 5277 5278 5278 5280 5282 5284 5286 5288 5290 5291 5296 5300 5302 5304 5306 5308 5308 5307 5306 5307 5312
5259 5256 5251 5252 5251 5249 5246 5244 5243 5241 5240 5238 5235 5230 5229 5237 5237 5237 5237 5237 5241 5243 5246 5249 5249 5250 5252 5256 5259 5262 5267 5269 5272 5275 5276 5278 5280 5282 5283 5284 5285 5287 5286
5238 5236 5230 5231 5228 5224 5221 5218 5215 5212 5210 5208 5204 5195 5191 5201 5203 5203 5203 5202 5204 5206 5207 5211 5213 5215 5219 5223 5228 5232 5236 5239 5240 5245 5249 5250 5252 5255 5257 5258 5259 5260 5263
5217 5213 5210 5206 5200 5197 5191 5188 5186 5182 5179 5176 5173 5169 5161 5166 5166 5166 5165 5164 5165 5168 5171 5174 5177 5178 5180 5185 5189 5195 5199 5203 5206 5211 5216 5219 5225 5227 5230 5232 5235 5235 5237
5193 5187 5182 5176 5168 5162 5160 5155 5151 5148 5146 5142 5138 5136 5133 5131 5130 5130 5129 5128 5129 5131 5132 5137 5140 5143 5145 5149 5153 5157 5162 5166 5169 5173 5183 5191 5196 5200 5203 5205 5205 5208 5208
5165 5157 5149 5142 5136 5128 5125 5121 5119 5116 5113 5112 5110 5108 5106 5104 5102 5100 5098 5098 5099 5100 5101 5103 5105 5106 5111 5116 5120 5123 5125 5129 5136 5142 5147 5156 5164 5168 5172 5175 5176 5175 5179
5135 5125 5118 5112 5107 5103 5099 5098 5095 5093 5092 5092 5091 5090 5088 5086 5084 5082 5080 5078 5077 5078 5079 5079 5080 5081 5082 5084 5088 5091 5094 5100 5106 5111 5120 5126 5130 5135 5138 5144 5146 5149 5149
5110 5103 5097 5093 5089 5086 5083 5080 5078 5076 5075 5074 5073 5071 5070 5069 5068 5066 5064 5063 5062 5062 5061 5062 5062 5061 5062 5065 5066 5068 5071 5075 5080 5086 5092 5101 5105 5109 5113 5115 5117 5123 5124